Simultaneous Nadir Overpasses (SNOs) Predictions

Prediction of SNOs between AQUA and METOP-A Satellite Orbit:

Table of predicted SNOs for the next 14.0 days since TLE Epoch: 1/26/2018
Index Date (AQUA) Time (AQUA) Lat,Lon (AQUA) SZA (AQUA ) Date (METOP-A) Time (METOP-A) Lat,Lon (METOP-A) SZA (METOP-A ) Distance(km) Time Diff (sec)
1 01/28/2018 14:41:50 74.09, -46.79 92.31 01/28/2018 14:41:03 74.10, -46.91 92.33 3.68 47
2 01/28/2018 15:31:17 -74.18, 120.65 87.60 01/28/2018 15:31:43 -74.17, 120.60 87.62 1.79 26
3 01/31/2018 10:16:07 74.14, 19.54 91.60 01/31/2018 10:15:20 74.13, 19.57 91.60 1.71 47
4 01/31/2018 11:05:33 -74.17,-172.89 88.38 01/31/2018 11:06:00 -74.20,-172.91 88.35 3.57 27
5 02/03/2018 05:50:24 74.14, 85.97 90.80 02/03/2018 05:49:38 74.16, 86.06 90.82 3.25 46
6 02/03/2018 06:39:51 -74.22,-106.56 89.13 02/03/2018 06:40:19 -74.19,-106.55 89.17 3.53 28
7 02/06/2018 01:24:41 74.14, 152.40 89.96 02/06/2018 01:23:57 74.14, 152.41 89.96 0.89 44
8 02/06/2018 02:14:08 -74.22, -40.12 89.98 02/06/2018 02:14:37 -74.22, -40.06 89.98 1.82 29
9 02/08/2018 20:58:57 74.16,-141.19 89.09 02/08/2018 20:58:14 74.17,-141.11 89.11 2.68 43
10 02/08/2018 21:48:24 -74.22, 26.30 90.85 02/08/2018 21:48:55 -74.20, 26.29 90.88 2.75 31




NCC Satellite Simultaneous Nadir Overpasses (SNOs) Prediction Service
